Content
SEND FEEDBACK

Daily
Averages
Monthly
Summary
France

CAEN, FRANCE


Home > Europe > France
Elevation: 220 feet     Latitude: 49 11N     Longitude: 000 27W

WEATHER
 
SELECT A DAY
Number of Records: 225,286;   Date Range: 7/1/96 - 11/22/14
 
SHARE

PRINT THIS DATA

[ ← Previous Day ]
WEATHER ALMANAC - MARCH 6, 2013
[ Next Day → ]
[ °C ]   °F
Weather ElementAverageHighLow
Temperature50 °F55.4 °F (2:00 pm)44 °F (1:00 am)
Dewpoint44.1 °F48.2 °F (7:30 pm)39 °F (1:00 am)
Humidity79.7 %94 % (9:30 pm)66 % (1:00 pm)
Barometer29.49 in29.55 in (1:00 am)29.44 in (4:30 pm)
Wind Speed6.5 mph11.5 mph (9:00 pm)
Weather ElementAverage
Visibility6.9 mi
Wind DirectionESE (109.2 °)

Weather ElementTotal
Precipitation---
Heating Degree Days15.3 (Base 65)
Averaged from 51 records on March 6, 2013
WEATHER CONDITIONS BREAKOUT
WIND DIRECTION BREAKOUT
WEATHER BY HOUR - MARCH 6, 2013
[ °C ]   °F
Local TimeTemperatureDewpointHumidityBarometerVisibilityWind DirectionWind SpeedGust SpeedPrecipitationEventsConditions
12:30 AM46.4 °F39.2 °F76 %29.53 in6.2 miESE (120°)5.8 mph
1:00 AM44.0 °F39.0 °F75 %29.55 in12.0 miESE (110°)6.9 mphClear
1:00 AM44.6 °F39.2 °F81 %29.53 in6.2 miESE (110°)6.9 mph
1:30 AM44.6 °F39.2 °F81 %29.53 in6.2 miESE (110°)5.8 mph
2:00 AM46.4 °F41.0 °F81 %29.53 in6.2 miEast (100°)5.8 mph
2:30 AM46.4 °F41.0 °F81 %29.53 in6.2 miESE (110°)5.8 mph
3:00 AM46.4 °F41.0 °F81 %29.53 in6.2 miESE (110°)5.8 mphRainLight Rain
3:30 AM46.4 °F41.0 °F81 %29.50 in6.2 miEast (100°)4.6 mph
4:00 AM46.4 °F41.0 °F81 %29.50 in6.2 miEast (100°)5.8 mph
4:30 AM46.4 °F41.0 °F81 %29.50 in6.2 miEast (100°)5.8 mphOvercast
5:00 AM46.4 °F41.0 °F81 %29.50 in6.2 miESE (110°)4.6 mphOvercast
5:30 AM46.4 °F41.0 °F81 %29.50 in6.2 miEast (100°)4.6 mphOvercast
6:00 AM46.4 °F41.0 °F81 %29.50 in6.2 miEast (90°)5.8 mphOvercast
6:30 AM46.4 °F41.0 °F81 %29.50 in6.2 miEast (90°)4.6 mphOvercast
7:00 AM47.0 °F41.0 °F74 %29.51 in12.0 miEast (100°)4.6 mphPartly Cloudy
7:00 AM46.4 °F41.0 °F81 %29.50 in6.2 miEast (100°)4.6 mphOvercast
7:30 AM46.4 °F41.0 °F81 %29.50 in6.2 miEast (100°)4.6 mphOvercast
8:00 AM48.2 °F41.0 °F76 %29.50 in6.2 miEast (90°)4.6 mphOvercast
8:30 AM48.2 °F42.8 °F82 %29.50 in6.2 miEast (100°)5.8 mphOvercast
9:00 AM48.2 °F42.8 °F82 %29.50 in6.2 miEast (100°)5.8 mphOvercast
9:30 AM48.2 °F42.8 °F82 %29.50 in6.2 miEast (100°)6.9 mphOvercast
10:00 AM50.0 °F42.8 °F76 %29.50 in6.2 miESE (110°)6.9 mphOvercast
10:30 AM50.0 °F42.8 °F76 %29.50 in6.2 miESE (110°)5.8 mphOvercast
11:00 AM50.0 °F42.8 °F76 %29.50 in6.2 miESE (110°)6.9 mphOvercast
11:30 AM51.8 °F44.6 °F76 %29.50 in6.2 miESE (110°)6.9 mph
12:00 PM51.8 °F44.6 °F76 %29.50 in6.2 miESE (110°)6.9 mph
12:30 PM51.8 °F44.6 °F76 %29.50 in6.2 miESE (110°)6.9 mph
1:00 PM53.0 °F45.0 °F66 %29.51 in19.0 miESE (120°)8.1 mphMostly Cloudy
1:00 PM53.6 °F44.6 °F72 %29.50 in6.2 miESE (120°)6.9 mph
1:30 PM53.6 °F46.4 °F77 %29.47 in6.2 miESE (120°)5.8 mph
2:00 PM55.4 °F46.4 °F72 %29.47 in6.2 miESE (120°)8.1 mph
2:30 PM55.4 °F46.4 °F72 %29.47 in6.2 miESE (120°)9.2 mph
3:00 PM53.6 °F46.4 °F77 %29.47 in6.2 miESE (110°)9.2 mph
3:30 PM55.4 °F46.4 °F72 %29.47 in6.2 miESE (120°)9.2 mph
4:00 PM55.4 °F46.4 °F72 %29.47 in6.2 miESE (120°)6.9 mph
4:30 PM55.4 °F46.4 °F72 %29.44 in6.2 miEast (100°)4.6 mphMostly Cloudy
5:00 PM55.4 °F46.4 °F72 %29.44 in6.2 miEast (90°)5.8 mph
5:30 PM55.4 °F46.4 °F72 %29.44 in6.2 miEast (80°)3.5 mph
6:00 PM53.6 °F46.4 °F77 %29.44 in6.2 miEast (90°)4.6 mphOvercast
6:30 PM53.6 °F46.4 °F77 %29.47 in6.2 miESE (120°)8.1 mphRainLight Rain
7:00 PM53.0 °F47.0 °F75 %29.48 in16.0 miESE (110°)6.9 mphRainLight Drizzle
7:00 PM51.8 °F46.4 °F82 %29.47 in6.2 miESE (110°)6.9 mphLight Drizzle
7:30 PM51.8 °F48.2 °F88 %29.47 in6.2 miESE (120°)8.1 mphOvercast
8:00 PM51.8 °F48.2 °F88 %29.47 in6.2 miESE (120°)8.1 mphOvercast
8:30 PM51.8 °F48.2 °F88 %29.47 in6.2 miSE (130°)8.1 mphOvercast
9:00 PM51.8 °F48.2 °F88 %29.47 in6.2 miESE (120°)11.5 mphRainLight Rain
9:30 PM50.0 °F48.2 °F94 %29.47 in6.2 miSE (130°)9.2 mphOvercast
10:00 PM50.0 °F48.2 °F94 %29.47 in6.2 miSE (130°)8.1 mphOvercast
10:30 PM50.0 °F48.2 °F94 %29.47 in6.2 miSE (130°)5.8 mphMostly Cloudy
11:00 PM50.0 °F48.2 °F94 %29.47 in6.2 miESE (110°)6.9 mphRainLight Rain
11:30 PM50.0 °F48.2 °F94 %29.47 in5.6 miESE (120°)5.8 mphRainLight Rain
Hourly data recorded from LFRK, located miles away from Caen, France







STORIES FROM OUR PARTNERS